Aeroporto :
LOGIN :

Iscrizione | Disclaimer

   EN    FR    IT 

 










Sommario :    VFR   VFR Marginale   IFR   IFR Intensivo   IFR Molto Intensivo
Visibilità : 
Base nubi : 
>= 8 km
>= 3000ft
5 / 8 km
1000 / 3000 ft
1500m / 5 km
500 / 1000 ft
800 / 1500m
200 / 500 ft
< 800m
< 200 ft
Simboli :   Temporali  Nebbia  Neve Forte  Precipitazioni Forti  Vento > 20 kt
SIGMETs :   Varie  Temporali  Ghiacco  Turbolenza  Onda orograficha  Ceneri Vulcaniche







- Altitudine del aeroporto : 291 ft
- Codice IATA : ORY
- Carte del aeroporto


LFPO - Paris-Orly

ULTIMO METAR :
  • 221730Z 36005KT 290V040 CAVOK 27/12 Q1015 NOSIG

METARs OBSOLETI :
  • 221700Z 35005KT 310V080 CAVOK 27/12 Q1015 NOSIG
  • 221630Z 29005KT 220V340 CAVOK 28/12 Q1015 NOSIG
  • 221600Z 36005KT 320V080 CAVOK 28/12 Q1016 NOSIG
  • 221530Z 34006KT 260V060 CAVOK 27/12 Q1016 NOSIG
  • 221500Z 28004KT 210V350 CAVOK 27/13 Q1016 NOSIG

TAF TAF LFPO
Valido dal 22 a 18 ore il 24 a 00 ore UTC


221700Z 2218/2324 VRB03KT CAVOK
ATIS : +33 1 49 75 65 80
Nessun NOTAM noto per questo aeroporto.



MetMap, La meteo Aeronautica in un colpo d'occhio ! - Copyright ORBIFLY Dicembre 2007 - Disclaimer

ORBIFLY MET'MAP TEAM :

Programmazione e sviluppo : Alexandra Zaïnal
Concezione e sviluppo : Baudouin d'Aumeries
Co-Programmazione e sviluppo : Marc-Olivier Méhu
Supporto tecnico e logistico : Manuel Goepfert
Aiuto per la traduzione : Arnaldo La Scala

Contatto : metmap@orbifly.com




FONTI E CREDITI :

   NOAA